Data supplied by UK-AIR on 5/4/2008
All Data GMT hour ending 
Status: R =Ratified P=Provisional,P*=As supplied
,,Billingham,,,,,,,,,,,,,,,,,,,,,,,
Date,time,"Nitric oxide",status,unit,"Nitrogen dioxide",status,unit,"Nitrogen oxides as nitrogen dioxide",status,unit
 
01-01-2004,01:00,31,R,ugm-3,46,R,ugm-3,94,R,ugm-3
01-01-2004,02:00,19,R,ugm-3,53,R,ugm-3,82,R,ugm-3
01-01-2004,03:00,6,R,ugm-3,42,R,ugm-3,52,R,ugm-3
01-01-2004,04:00,5,R,ugm-3,31,R,ugm-3,38,R,ugm-3
01-01-2004,05:00,5,R,ugm-3,27,R,ugm-3,34,R,ugm-3
01-01-2004,06:00,1,R,ugm-3,17,R,ugm-3,19,R,ugm-3
01-01-2004,07:00,1,R,ugm-3,15,R,ugm-3,17,R,ugm-3
01-01-2004,08:00,0,R,ugm-3,17,R,ugm-3,17,R,ugm-3
01-01-2004,09:00,1,R,ugm-3,19,R,ugm-3,21,R,ugm-3
01-01-2004,10:00,1,R,ugm-3,15,R,ugm-3,17,R,ugm-3
01-01-2004,11:00,3,R,ugm-3,23,R,ugm-3,27,R,ugm-3
01-01-2004,12:00,5,R,ugm-3,25,R,ugm-3,32,R,ugm-3
01-01-2004,13:00,9,R,ugm-3,27,R,ugm-3,40,R,ugm-3
01-01-2004,14:00,5,R,ugm-3,25,R,ugm-3,32,R,ugm-3
01-01-2004,15:00,1,R,ugm-3,15,R,ugm-3,17,R,ugm-3
01-01-2004,16:00,0,R,ugm-3,15,R,ugm-3,15,R,ugm-3
01-01-2004,17:00,1,R,ugm-3,19,R,ugm-3,21,R,ugm-3
01-01-2004,18:00,8,R,ugm-3,32,R,ugm-3,44,R,ugm-3
01-01-2004,19:00,1,R,ugm-3,19,R,ugm-3,21,R,ugm-3
01-01-2004,20:00,3,R,ugm-3,19,R,ugm-3,23,R,ugm-3
01-01-2004,21:00,3,R,ugm-3,17,R,ugm-3,21,R,ugm-3
01-01-2004,22:00,1,R,ugm-3,10,R,ugm-3,11,R,ugm-3
01-01-2004,23:00,0,R,ugm-3,6,R,ugm-3,6,R,ugm-3
01-01-2004,24:00,0,R,ugm-3,6,R,ugm-3,6,R,ugm-3
02-01-2004,01:00,0,R,ugm-3,6,R,ugm-3,6,R,ugm-3
02-01-2004,02:00,0,R,ugm-3,8,R,ugm-3,8,R,ugm-3
02-01-2004,03:00,0,R,ugm-3,6,R,ugm-3,6,R,ugm-3
02-01-2004,04:00,0,R,ugm-3,6,R,ugm-3,6,R,ugm-3
02-01-2004,05:00,0,R,ugm-3,8,R,ugm-3,8,R,ugm-3
02-01-2004,06:00,21,R,ugm-3,42,R,ugm-3,74,R,ugm-3
02-01-2004,07:00,73,R,ugm-3,59,R,ugm-3,170,R,ugm-3
02-01-2004,08:00,44,R,ugm-3,57,R,ugm-3,124,R,ugm-3
02-01-2004,09:00,15,R,ugm-3,44,R,ugm-3,67,R,ugm-3
02-01-2004,10:00,24,R,ugm-3,53,R,ugm-3,90,R,ugm-3
02-01-2004,11:00,51,R,ugm-3,74,R,ugm-3,153,R,ugm-3
02-01-2004,12:00,53,R,ugm-3,57,R,ugm-3,138,R,ugm-3
02-01-2004,13:00,13,R,ugm-3,31,R,ugm-3,50,R,ugm-3
02-01-2004,14:00,19,R,ugm-3,34,R,ugm-3,63,R,ugm-3
02-01-2004,15:00,28,R,ugm-3,52,R,ugm-3,94,R,ugm-3
02-01-2004,16:00,29,R,ugm-3,53,R,ugm-3,97,R,ugm-3
02-01-2004,17:00,29,R,ugm-3,53,R,ugm-3,97,R,ugm-3
02-01-2004,18:00,14,R,ugm-3,48,R,ugm-3,69,R,ugm-3
02-01-2004,19:00,13,R,ugm-3,48,R,ugm-3,67,R,ugm-3
02-01-2004,20:00,15,R,ugm-3,46,R,ugm-3,69,R,ugm-3
02-01-2004,21:00,4,R,ugm-3,29,R,ugm-3,34,R,ugm-3
02-01-2004,22:00,0,R,ugm-3,15,R,ugm-3,15,R,ugm-3
02-01-2004,23:00,1,R,ugm-3,17,R,ugm-3,19,R,ugm-3
02-01-2004,24:00,6,R,ugm-3,36,R,ugm-3,46,R,ugm-3
03-01-2004,01:00,5,R,ugm-3,46,R,ugm-3,53,R,ugm-3
03-01-2004,02:00,1,R,ugm-3,25,R,ugm-3,27,R,ugm-3
03-01-2004,03:00,1,R,ugm-3,31,R,ugm-3,32,R,ugm-3
03-01-2004,04:00,5,R,ugm-3,38,R,ugm-3,46,R,ugm-3
03-01-2004,05:00,3,R,ugm-3,25,R,ugm-3,29,R,ugm-3
03-01-2004,06:00,1,R,ugm-3,21,R,ugm-3,23,R,ugm-3
03-01-2004,07:00,3,R,ugm-3,19,R,ugm-3,23,R,ugm-3
03-01-2004,08:00,1,R,ugm-3,19,R,ugm-3,21,R,ugm-3
03-01-2004,09:00,3,R,ugm-3,21,R,ugm-3,25,R,ugm-3
03-01-2004,10:00,3,R,ugm-3,29,R,ugm-3,32,R,ugm-3
03-01-2004,11:00,8,R,ugm-3,29,R,ugm-3,40,R,ugm-3
03-01-2004,12:00,10,R,ugm-3,31,R,ugm-3,46,R,ugm-3
03-01-2004,13:00,11,R,ugm-3,27,R,ugm-3,44,R,ugm-3
03-01-2004,14:00,11,R,ugm-3,31,R,ugm-3,48,R,ugm-3
03-01-2004,15:00,13,R,ugm-3,36,R,ugm-3,55,R,ugm-3
03-01-2004,16:00,16,R,ugm-3,40,R,ugm-3,65,R,ugm-3
03-01-2004,17:00,20,R,ugm-3,42,R,ugm-3,73,R,ugm-3
03-01-2004,18:00,24,R,ugm-3,42,R,ugm-3,78,R,ugm-3
03-01-2004,19:00,31,R,ugm-3,48,R,ugm-3,96,R,ugm-3
03-01-2004,20:00,19,R,ugm-3,44,R,ugm-3,73,R,ugm-3
03-01-2004,21:00,6,R,ugm-3,31,R,ugm-3,40,R,ugm-3
03-01-2004,22:00,34,R,ugm-3,44,R,ugm-3,96,R,ugm-3
03-01-2004,23:00,4,R,ugm-3,21,R,ugm-3,27,R,ugm-3
03-01-2004,24:00,1,R,ugm-3,13,R,ugm-3,15,R,ugm-3
04-01-2004,01:00,1,R,ugm-3,10,R,ugm-3,11,R,ugm-3
04-01-2004,02:00,0,R,ugm-3,8,R,ugm-3,8,R,ugm-3
04-01-2004,03:00,0,R,ugm-3,6,R,ugm-3,6,R,ugm-3
04-01-2004,04:00,0,R,ugm-3,8,R,ugm-3,8,R,ugm-3
04-01-2004,05:00,8,R,ugm-3,13,R,ugm-3,25,R,ugm-3
04-01-2004,06:00,8,R,ugm-3,19,R,ugm-3,31,R,ugm-3
04-01-2004,07:00,15,R,ugm-3,27,R,ugm-3,50,R,ugm-3
04-01-2004,08:00,16,R,ugm-3,34,R,ugm-3,59,R,ugm-3
04-01-2004,09:00,16,R,ugm-3,40,R,ugm-3,65,R,ugm-3
04-01-2004,10:00,19,R,ugm-3,38,R,ugm-3,67,R,ugm-3
04-01-2004,11:00,39,R,ugm-3,44,R,ugm-3,103,R,ugm-3
04-01-2004,12:00,40,R,ugm-3,46,R,ugm-3,107,R,ugm-3
04-01-2004,13:00,35,R,ugm-3,46,R,ugm-3,99,R,ugm-3
04-01-2004,14:00,23,R,ugm-3,44,R,ugm-3,78,R,ugm-3
04-01-2004,15:00,18,R,ugm-3,42,R,ugm-3,69,R,ugm-3
04-01-2004,16:00,8,R,ugm-3,36,R,ugm-3,48,R,ugm-3
04-01-2004,17:00,15,R,ugm-3,50,R,ugm-3,73,R,ugm-3
04-01-2004,18:00,54,R,ugm-3,59,R,ugm-3,141,R,ugm-3
04-01-2004,19:00,21,R,ugm-3,50,R,ugm-3,82,R,ugm-3
04-01-2004,20:00,11,R,ugm-3,48,R,ugm-3,65,R,ugm-3
04-01-2004,21:00,16,R,ugm-3,50,R,ugm-3,74,R,ugm-3
04-01-2004,22:00,5,R,ugm-3,34,R,ugm-3,42,R,ugm-3
04-01-2004,23:00,1,R,ugm-3,19,R,ugm-3,21,R,ugm-3
04-01-2004,24:00,1,R,ugm-3,13,R,ugm-3,15,R,ugm-3
05-01-2004,01:00,0,R,ugm-3,13,R,ugm-3,13,R,ugm-3
05-01-2004,02:00,1,R,ugm-3,17,R,ugm-3,19,R,ugm-3
05-01-2004,03:00,1,R,ugm-3,17,R,ugm-3,19,R,ugm-3
05-01-2004,04:00,1,R,ugm-3,23,R,ugm-3,25,R,ugm-3
05-01-2004,05:00,3,R,ugm-3,29,R,ugm-3,32,R,ugm-3
05-01-2004,06:00,5,R,ugm-3,32,R,ugm-3,40,R,ugm-3
05-01-2004,07:00,28,R,ugm-3,44,R,ugm-3,86,R,ugm-3
05-01-2004,08:00,211,R,ugm-3,107,R,ugm-3,430,R,ugm-3
05-01-2004,09:00,160,R,ugm-3,115,R,ugm-3,359,R,ugm-3
05-01-2004,10:00,45,R,ugm-3,59,R,ugm-3,128,R,ugm-3
05-01-2004,11:00,14,R,ugm-3,42,R,ugm-3,63,R,ugm-3
05-01-2004,12:00,13,R,ugm-3,38,R,ugm-3,57,R,ugm-3
05-01-2004,13:00,13,R,ugm-3,38,R,ugm-3,57,R,ugm-3
05-01-2004,14:00,11,R,ugm-3,52,R,ugm-3,69,R,ugm-3
05-01-2004,15:00,18,R,ugm-3,46,R,ugm-3,73,R,ugm-3
05-01-2004,16:00,35,R,ugm-3,53,R,ugm-3,107,R,ugm-3
05-01-2004,17:00,15,R,ugm-3,63,R,ugm-3,86,R,ugm-3
05-01-2004,18:00,15,R,ugm-3,52,R,ugm-3,74,R,ugm-3
05-01-2004,19:00,9,R,ugm-3,48,R,ugm-3,61,R,ugm-3
05-01-2004,20:00,4,R,ugm-3,38,R,ugm-3,44,R,ugm-3
05-01-2004,21:00,3,R,ugm-3,34,R,ugm-3,38,R,ugm-3
05-01-2004,22:00,3,R,ugm-3,31,R,ugm-3,34,R,ugm-3
05-01-2004,23:00,1,R,ugm-3,27,R,ugm-3,29,R,ugm-3
05-01-2004,24:00,1,R,ugm-3,21,R,ugm-3,23,R,ugm-3
06-01-2004,01:00,1,R,ugm-3,17,R,ugm-3,19,R,ugm-3
06-01-2004,02:00,1,R,ugm-3,17,R,ugm-3,19,R,ugm-3
06-01-2004,03:00,1,R,ugm-3,15,R,ugm-3,17,R,ugm-3
06-01-2004,04:00,1,R,ugm-3,15,R,ugm-3,17,R,ugm-3
06-01-2004,05:00,1,R,ugm-3,11,R,ugm-3,13,R,ugm-3
06-01-2004,06:00,3,R,ugm-3,13,R,ugm-3,17,R,ugm-3
06-01-2004,07:00,45,R,ugm-3,59,R,ugm-3,128,R,ugm-3
06-01-2004,08:00,41,R,ugm-3,74,R,ugm-3,138,R,ugm-3
06-01-2004,09:00,60,R,ugm-3,74,R,ugm-3,166,R,ugm-3
06-01-2004,10:00,16,R,ugm-3,36,R,ugm-3,61,R,ugm-3
06-01-2004,11:00,,,,,,,,,
06-01-2004,12:00,9,R,ugm-3,15,R,ugm-3,29,R,ugm-3
06-01-2004,13:00,5,R,ugm-3,15,R,ugm-3,23,R,ugm-3
06-01-2004,14:00,8,R,ugm-3,25,R,ugm-3,36,R,ugm-3
06-01-2004,15:00,8,R,ugm-3,21,R,ugm-3,32,R,ugm-3
06-01-2004,16:00,14,R,ugm-3,34,R,ugm-3,55,R,ugm-3
06-01-2004,17:00,8,R,ugm-3,38,R,ugm-3,50,R,ugm-3
06-01-2004,18:00,8,R,ugm-3,50,R,ugm-3,61,R,ugm-3
06-01-2004,19:00,4,R,ugm-3,32,R,ugm-3,38,R,ugm-3
06-01-2004,20:00,4,R,ugm-3,40,R,ugm-3,46,R,ugm-3
06-01-2004,21:00,4,R,ugm-3,42,R,ugm-3,48,R,ugm-3
06-01-2004,22:00,3,R,ugm-3,32,R,ugm-3,36,R,ugm-3
06-01-2004,23:00,3,R,ugm-3,31,R,ugm-3,34,R,ugm-3
06-01-2004,24:00,3,R,ugm-3,21,R,ugm-3,25,R,ugm-3
07-01-2004,01:00,0,R,ugm-3,15,R,ugm-3,15,R,ugm-3
07-01-2004,02:00,0,R,ugm-3,15,R,ugm-3,15,R,ugm-3
07-01-2004,03:00,0,R,ugm-3,19,R,ugm-3,19,R,ugm-3
07-01-2004,04:00,1,R,ugm-3,27,R,ugm-3,29,R,ugm-3
07-01-2004,05:00,4,R,ugm-3,40,R,ugm-3,46,R,ugm-3
07-01-2004,06:00,3,R,ugm-3,34,R,ugm-3,38,R,ugm-3
07-01-2004,07:00,15,R,ugm-3,67,R,ugm-3,90,R,ugm-3
07-01-2004,08:00,40,R,ugm-3,63,R,ugm-3,124,R,ugm-3
07-01-2004,09:00,40,R,ugm-3,65,R,ugm-3,126,R,ugm-3
07-01-2004,10:00,25,R,ugm-3,52,R,ugm-3,90,R,ugm-3
07-01-2004,11:00,14,R,ugm-3,42,R,ugm-3,63,R,ugm-3
07-01-2004,12:00,44,R,ugm-3,59,R,ugm-3,126,R,ugm-3
07-01-2004,13:00,33,R,ugm-3,48,R,ugm-3,97,R,ugm-3
07-01-2004,14:00,38,R,ugm-3,55,R,ugm-3,113,R,ugm-3
07-01-2004,15:00,51,R,ugm-3,80,R,ugm-3,159,R,ugm-3
07-01-2004,16:00,24,R,ugm-3,59,R,ugm-3,96,R,ugm-3
07-01-2004,17:00,20,R,ugm-3,55,R,ugm-3,86,R,ugm-3
07-01-2004,18:00,25,R,ugm-3,52,R,ugm-3,90,R,ugm-3
07-01-2004,19:00,14,R,ugm-3,42,R,ugm-3,63,R,ugm-3
07-01-2004,20:00,30,R,ugm-3,50,R,ugm-3,96,R,ugm-3
07-01-2004,21:00,18,R,ugm-3,40,R,ugm-3,67,R,ugm-3
07-01-2004,22:00,25,R,ugm-3,46,R,ugm-3,84,R,ugm-3
07-01-2004,23:00,34,R,ugm-3,53,R,ugm-3,105,R,ugm-3
07-01-2004,24:00,35,R,ugm-3,53,R,ugm-3,107,R,ugm-3
08-01-2004,01:00,35,R,ugm-3,53,R,ugm-3,107,R,ugm-3
08-01-2004,02:00,6,R,ugm-3,36,R,ugm-3,46,R,ugm-3
08-01-2004,03:00,3,R,ugm-3,29,R,ugm-3,32,R,ugm-3
08-01-2004,04:00,19,R,ugm-3,40,R,ugm-3,69,R,ugm-3
08-01-2004,05:00,16,R,ugm-3,36,R,ugm-3,61,R,ugm-3
08-01-2004,06:00,9,R,ugm-3,31,R,ugm-3,44,R,ugm-3
08-01-2004,07:00,10,R,ugm-3,42,R,ugm-3,57,R,ugm-3
08-01-2004,08:00,29,R,ugm-3,63,R,ugm-3,107,R,ugm-3
08-01-2004,09:00,26,R,ugm-3,38,R,ugm-3,78,R,ugm-3
08-01-2004,10:00,13,R,ugm-3,34,R,ugm-3,53,R,ugm-3
08-01-2004,11:00,6,R,ugm-3,25,R,ugm-3,34,R,ugm-3
08-01-2004,12:00,1,R,ugm-3,19,R,ugm-3,21,R,ugm-3
08-01-2004,13:00,1,R,ugm-3,19,R,ugm-3,21,R,ugm-3
08-01-2004,14:00,8,R,ugm-3,31,R,ugm-3,42,R,ugm-3
08-01-2004,15:00,3,R,ugm-3,17,R,ugm-3,21,R,ugm-3
08-01-2004,16:00,5,R,ugm-3,21,R,ugm-3,29,R,ugm-3
08-01-2004,17:00,11,R,ugm-3,42,R,ugm-3,59,R,ugm-3
08-01-2004,18:00,3,R,ugm-3,21,R,ugm-3,25,R,ugm-3
08-01-2004,19:00,1,R,ugm-3,19,R,ugm-3,21,R,ugm-3
08-01-2004,20:00,0,R,ugm-3,17,R,ugm-3,17,R,ugm-3
08-01-2004,21:00,0,R,ugm-3,17,R,ugm-3,17,R,ugm-3
08-01-2004,22:00,0,R,ugm-3,17,R,ugm-3,17,R,ugm-3
08-01-2004,23:00,0,R,ugm-3,13,R,ugm-3,13,R,ugm-3
08-01-2004,24:00,0,R,ugm-3,13,R,ugm-3,13,R,ugm-3
09-01-2004,01:00,1,R,ugm-3,10,R,ugm-3,11,R,ugm-3
09-01-2004,02:00,1,R,ugm-3,10,R,ugm-3,11,R,ugm-3
09-01-2004,03:00,1,R,ugm-3,8,R,ugm-3,10,R,ugm-3
09-01-2004,04:00,1,R,ugm-3,11,R,ugm-3,13,R,ugm-3
09-01-2004,05:00,1,R,ugm-3,10,R,ugm-3,11,R,ugm-3
09-01-2004,06:00,1,R,ugm-3,13,R,ugm-3,15,R,ugm-3
09-01-2004,07:00,13,R,ugm-3,25,R,ugm-3,44,R,ugm-3
09-01-2004,08:00,10,R,ugm-3,34,R,ugm-3,50,R,ugm-3
09-01-2004,09:00,21,R,ugm-3,59,R,ugm-3,92,R,ugm-3
09-01-2004,10:00,16,R,ugm-3,48,R,ugm-3,73,R,ugm-3
09-01-2004,11:00,11,R,ugm-3,42,R,ugm-3,59,R,ugm-3
09-01-2004,12:00,14,R,ugm-3,36,R,ugm-3,57,R,ugm-3
09-01-2004,13:00,30,R,ugm-3,46,R,ugm-3,92,R,ugm-3
09-01-2004,14:00,18,R,ugm-3,32,R,ugm-3,59,R,ugm-3
09-01-2004,15:00,26,R,ugm-3,48,R,ugm-3,88,R,ugm-3
09-01-2004,16:00,43,R,ugm-3,59,R,ugm-3,124,R,ugm-3
09-01-2004,17:00,21,R,ugm-3,53,R,ugm-3,86,R,ugm-3
09-01-2004,18:00,14,R,ugm-3,52,R,ugm-3,73,R,ugm-3
09-01-2004,19:00,13,R,ugm-3,59,R,ugm-3,78,R,ugm-3
09-01-2004,20:00,8,R,ugm-3,50,R,ugm-3,61,R,ugm-3
09-01-2004,21:00,5,R,ugm-3,32,R,ugm-3,40,R,ugm-3
09-01-2004,22:00,4,R,ugm-3,29,R,ugm-3,34,R,ugm-3
09-01-2004,23:00,4,R,ugm-3,34,R,ugm-3,40,R,ugm-3
09-01-2004,24:00,3,R,ugm-3,17,R,ugm-3,21,R,ugm-3
10-01-2004,01:00,1,R,ugm-3,15,R,ugm-3,17,R,ugm-3
10-01-2004,02:00,0,R,ugm-3,27,R,ugm-3,27,R,ugm-3
10-01-2004,03:00,0,R,ugm-3,13,R,ugm-3,13,R,ugm-3
10-01-2004,04:00,0,R,ugm-3,17,R,ugm-3,17,R,ugm-3
10-01-2004,05:00,0,R,ugm-3,11,R,ugm-3,11,R,ugm-3
10-01-2004,06:00,1,R,ugm-3,21,R,ugm-3,23,R,ugm-3
10-01-2004,07:00,0,R,ugm-3,15,R,ugm-3,15,R,ugm-3
10-01-2004,08:00,0,R,ugm-3,15,R,ugm-3,15,R,ugm-3
10-01-2004,09:00,1,R,ugm-3,21,R,ugm-3,23,R,ugm-3
10-01-2004,10:00,1,R,ugm-3,23,R,ugm-3,25,R,ugm-3
10-01-2004,11:00,3,R,ugm-3,23,R,ugm-3,27,R,ugm-3
10-01-2004,12:00,4,R,ugm-3,27,R,ugm-3,32,R,ugm-3
10-01-2004,13:00,4,R,ugm-3,31,R,ugm-3,36,R,ugm-3
10-01-2004,14:00,3,R,ugm-3,25,R,ugm-3,29,R,ugm-3
10-01-2004,15:00,4,R,ugm-3,36,R,ugm-3,42,R,ugm-3
10-01-2004,16:00,3,R,ugm-3,32,R,ugm-3,36,R,ugm-3
10-01-2004,17:00,1,R,ugm-3,27,R,ugm-3,29,R,ugm-3
10-01-2004,18:00,1,R,ugm-3,19,R,ugm-3,21,R,ugm-3
10-01-2004,19:00,1,R,ugm-3,15,R,ugm-3,17,R,ugm-3
10-01-2004,20:00,1,R,ugm-3,17,R,ugm-3,19,R,ugm-3
10-01-2004,21:00,1,R,ugm-3,15,R,ugm-3,17,R,ugm-3
10-01-2004,22:00,0,R,ugm-3,10,R,ugm-3,10,R,ugm-3
10-01-2004,23:00,0,R,ugm-3,10,R,ugm-3,10,R,ugm-3
10-01-2004,24:00,1,R,ugm-3,8,R,ugm-3,10,R,ugm-3
11-01-2004,01:00,0,R,ugm-3,10,R,ugm-3,10,R,ugm-3
11-01-2004,02:00,0,R,ugm-3,13,R,ugm-3,13,R,ugm-3
11-01-2004,03:00,0,R,ugm-3,10,R,ugm-3,10,R,ugm-3
11-01-2004,04:00,0,R,ugm-3,8,R,ugm-3,8,R,ugm-3
11-01-2004,05:00,0,R,ugm-3,11,R,ugm-3,11,R,ugm-3
11-01-2004,06:00,0,R,ugm-3,8,R,ugm-3,8,R,ugm-3
11-01-2004,07:00,1,R,ugm-3,8,R,ugm-3,10,R,ugm-3
11-01-2004,08:00,1,R,ugm-3,6,R,ugm-3,8,R,ugm-3
11-01-2004,09:00,1,R,ugm-3,6,R,ugm-3,8,R,ugm-3
11-01-2004,10:00,1,R,ugm-3,11,R,ugm-3,13,R,ugm-3
11-01-2004,11:00,1,R,ugm-3,11,R,ugm-3,13,R,ugm-3
11-01-2004,12:00,1,R,ugm-3,11,R,ugm-3,13,R,ugm-3
11-01-2004,13:00,1,R,ugm-3,13,R,ugm-3,15,R,ugm-3
11-01-2004,14:00,1,R,ugm-3,13,R,ugm-3,15,R,ugm-3
11-01-2004,15:00,1,R,ugm-3,11,R,ugm-3,13,R,ugm-3
11-01-2004,16:00,1,R,ugm-3,15,R,ugm-3,17,R,ugm-3
11-01-2004,17:00,1,R,ugm-3,15,R,ugm-3,17,R,ugm-3
11-01-2004,18:00,1,R,ugm-3,11,R,ugm-3,13,R,ugm-3
11-01-2004,19:00,1,R,ugm-3,13,R,ugm-3,15,R,ugm-3
11-01-2004,20:00,1,R,ugm-3,13,R,ugm-3,15,R,ugm-3
11-01-2004,21:00,1,R,ugm-3,10,R,ugm-3,11,R,ugm-3
11-01-2004,22:00,1,R,ugm-3,8,R,ugm-3,10,R,ugm-3
11-01-2004,23:00,0,R,ugm-3,6,R,ugm-3,6,R,ugm-3
11-01-2004,24:00,0,R,ugm-3,4,R,ugm-3,4,R,ugm-3
12-01-2004,01:00,1,R,ugm-3,4,R,ugm-3,6,R,ugm-3
12-01-2004,02:00,1,R,ugm-3,8,R,ugm-3,10,R,ugm-3
12-01-2004,03:00,1,R,ugm-3,6,R,ugm-3,8,R,ugm-3
12-01-2004,04:00,1,R,ugm-3,4,R,ugm-3,6,R,ugm-3
12-01-2004,05:00,1,R,ugm-3,6,R,ugm-3,8,R,ugm-3
12-01-2004,06:00,3,R,ugm-3,13,R,ugm-3,17,R,ugm-3
12-01-2004,07:00,4,R,ugm-3,17,R,ugm-3,23,R,ugm-3
12-01-2004,08:00,26,R,ugm-3,52,R,ugm-3,92,R,ugm-3
12-01-2004,09:00,59,R,ugm-3,84,R,ugm-3,174,R,ugm-3
12-01-2004,10:00,16,R,ugm-3,42,R,ugm-3,67,R,ugm-3
12-01-2004,11:00,14,R,ugm-3,27,R,ugm-3,48,R,ugm-3
12-01-2004,12:00,15,R,ugm-3,25,R,ugm-3,48,R,ugm-3
12-01-2004,13:00,15,R,ugm-3,27,R,ugm-3,50,R,ugm-3
12-01-2004,14:00,11,R,ugm-3,25,R,ugm-3,42,R,ugm-3
12-01-2004,15:00,20,R,ugm-3,27,R,ugm-3,57,R,ugm-3
12-01-2004,16:00,28,R,ugm-3,34,R,ugm-3,76,R,ugm-3
12-01-2004,17:00,35,R,ugm-3,46,R,ugm-3,99,R,ugm-3
12-01-2004,18:00,6,R,ugm-3,44,R,ugm-3,53,R,ugm-3
12-01-2004,19:00,5,R,ugm-3,32,R,ugm-3,40,R,ugm-3
12-01-2004,20:00,4,R,ugm-3,29,R,ugm-3,34,R,ugm-3
12-01-2004,21:00,3,R,ugm-3,27,R,ugm-3,31,R,ugm-3
12-01-2004,22:00,1,R,ugm-3,21,R,ugm-3,23,R,ugm-3
12-01-2004,23:00,3,R,ugm-3,29,R,ugm-3,32,R,ugm-3
12-01-2004,24:00,6,R,ugm-3,32,R,ugm-3,42,R,ugm-3
13-01-2004,01:00,4,R,ugm-3,27,R,ugm-3,32,R,ugm-3
13-01-2004,02:00,13,R,ugm-3,38,R,ugm-3,57,R,ugm-3
13-01-2004,03:00,0,R,ugm-3,11,R,ugm-3,11,R,ugm-3
13-01-2004,04:00,0,R,ugm-3,6,R,ugm-3,6,R,ugm-3
13-01-2004,05:00,0,R,ugm-3,8,R,ugm-3,8,R,ugm-3
13-01-2004,06:00,1,R,ugm-3,11,R,ugm-3,13,R,ugm-3
13-01-2004,07:00,4,R,ugm-3,25,R,ugm-3,31,R,ugm-3
13-01-2004,08:00,30,R,ugm-3,50,R,ugm-3,96,R,ugm-3
13-01-2004,09:00,25,R,ugm-3,55,R,ugm-3,94,R,ugm-3
13-01-2004,10:00,38,R,ugm-3,53,R,ugm-3,111,R,ugm-3
13-01-2004,11:00,51,R,ugm-3,53,R,ugm-3,132,R,ugm-3
13-01-2004,12:00,36,R,ugm-3,48,R,ugm-3,103,R,ugm-3
13-01-2004,13:00,53,R,ugm-3,52,R,ugm-3,132,R,ugm-3
13-01-2004,14:00,93,R,ugm-3,69,R,ugm-3,210,R,ugm-3
13-01-2004,15:00,31,R,ugm-3,50,R,ugm-3,97,R,ugm-3
13-01-2004,16:00,79,R,ugm-3,76,R,ugm-3,197,R,ugm-3
13-01-2004,17:00,64,R,ugm-3,82,R,ugm-3,180,R,ugm-3
13-01-2004,18:00,26,R,ugm-3,69,R,ugm-3,109,R,ugm-3
13-01-2004,19:00,11,R,ugm-3,52,R,ugm-3,69,R,ugm-3
13-01-2004,20:00,4,R,ugm-3,29,R,ugm-3,34,R,ugm-3
13-01-2004,21:00,3,R,ugm-3,27,R,ugm-3,31,R,ugm-3
13-01-2004,22:00,1,R,ugm-3,19,R,ugm-3,21,R,ugm-3
13-01-2004,23:00,1,R,ugm-3,13,R,ugm-3,15,R,ugm-3
13-01-2004,24:00,0,R,ugm-3,11,R,ugm-3,11,R,ugm-3
14-01-2004,01:00,1,R,ugm-3,10,R,ugm-3,11,R,ugm-3
14-01-2004,02:00,1,R,ugm-3,6,R,ugm-3,8,R,ugm-3
14-01-2004,03:00,1,R,ugm-3,6,R,ugm-3,8,R,ugm-3
14-01-2004,04:00,1,R,ugm-3,4,R,ugm-3,6,R,ugm-3
14-01-2004,05:00,1,R,ugm-3,4,R,ugm-3,6,R,ugm-3
14-01-2004,06:00,1,R,ugm-3,17,R,ugm-3,19,R,ugm-3
14-01-2004,07:00,20,R,ugm-3,48,R,ugm-3,78,R,ugm-3
14-01-2004,08:00,33,R,ugm-3,67,R,ugm-3,117,R,ugm-3
14-01-2004,09:00,56,R,ugm-3,86,R,ugm-3,172,R,ugm-3
14-01-2004,10:00,78,R,ugm-3,80,R,ugm-3,199,R,ugm-3
14-01-2004,11:00,19,R,ugm-3,53,R,ugm-3,82,R,ugm-3
14-01-2004,12:00,41,R,ugm-3,84,R,ugm-3,147,R,ugm-3
14-01-2004,13:00,33,R,ugm-3,53,R,ugm-3,103,R,ugm-3
14-01-2004,14:00,25,R,ugm-3,48,R,ugm-3,86,R,ugm-3
14-01-2004,15:00,33,R,ugm-3,57,R,ugm-3,107,R,ugm-3
14-01-2004,16:00,54,R,ugm-3,84,R,ugm-3,166,R,ugm-3
14-01-2004,17:00,44,R,ugm-3,88,R,ugm-3,155,R,ugm-3
14-01-2004,18:00,85,R,ugm-3,103,R,ugm-3,233,R,ugm-3
14-01-2004,19:00,41,R,ugm-3,67,R,ugm-3,130,R,ugm-3
14-01-2004,20:00,19,R,ugm-3,61,R,ugm-3,90,R,ugm-3
14-01-2004,21:00,6,R,ugm-3,42,R,ugm-3,52,R,ugm-3
14-01-2004,22:00,4,R,ugm-3,34,R,ugm-3,40,R,ugm-3
14-01-2004,23:00,1,R,ugm-3,27,R,ugm-3,29,R,ugm-3
14-01-2004,24:00,1,R,ugm-3,17,R,ugm-3,19,R,ugm-3
15-01-2004,01:00,1,R,ugm-3,15,R,ugm-3,17,R,ugm-3
15-01-2004,02:00,1,R,ugm-3,6,R,ugm-3,8,R,ugm-3
15-01-2004,03:00,1,R,ugm-3,11,R,ugm-3,13,R,ugm-3
15-01-2004,04:00,1,R,ugm-3,8,R,ugm-3,10,R,ugm-3
15-01-2004,05:00,1,R,ugm-3,6,R,ugm-3,8,R,ugm-3
15-01-2004,06:00,1,R,ugm-3,17,R,ugm-3,19,R,ugm-3
15-01-2004,07:00,3,R,ugm-3,34,R,ugm-3,38,R,ugm-3
15-01-2004,08:00,53,R,ugm-3,69,R,ugm-3,149,R,ugm-3
15-01-2004,09:00,30,R,ugm-3,67,R,ugm-3,113,R,ugm-3
15-01-2004,10:00,18,R,ugm-3,50,R,ugm-3,76,R,ugm-3
15-01-2004,11:00,9,R,ugm-3,32,R,ugm-3,46,R,ugm-3
15-01-2004,12:00,14,R,ugm-3,44,R,ugm-3,65,R,ugm-3
15-01-2004,13:00,6,R,ugm-3,34,R,ugm-3,44,R,ugm-3
15-01-2004,14:00,8,R,ugm-3,38,R,ugm-3,50,R,ugm-3
15-01-2004,15:00,8,R,ugm-3,46,R,ugm-3,57,R,ugm-3
15-01-2004,16:00,25,R,ugm-3,57,R,ugm-3,96,R,ugm-3
15-01-2004,17:00,4,R,ugm-3,34,R,ugm-3,40,R,ugm-3
15-01-2004,18:00,3,R,ugm-3,38,R,ugm-3,42,R,ugm-3
15-01-2004,19:00,1,R,ugm-3,31,R,ugm-3,32,R,ugm-3
15-01-2004,20:00,11,R,ugm-3,48,R,ugm-3,65,R,ugm-3
15-01-2004,21:00,8,R,ugm-3,50,R,ugm-3,61,R,ugm-3
15-01-2004,22:00,3,R,ugm-3,34,R,ugm-3,38,R,ugm-3
15-01-2004,23:00,3,R,ugm-3,27,R,ugm-3,31,R,ugm-3
15-01-2004,24:00,3,R,ugm-3,31,R,ugm-3,34,R,ugm-3
16-01-2004,01:00,0,R,ugm-3,23,R,ugm-3,23,R,ugm-3
16-01-2004,02:00,0,R,ugm-3,17,R,ugm-3,17,R,ugm-3
16-01-2004,03:00,0,R,ugm-3,15,R,ugm-3,15,R,ugm-3
16-01-2004,04:00,0,R,ugm-3,15,R,ugm-3,15,R,ugm-3
16-01-2004,05:00,1,R,ugm-3,15,R,ugm-3,17,R,ugm-3
16-01-2004,06:00,10,R,ugm-3,31,R,ugm-3,46,R,ugm-3
16-01-2004,07:00,89,R,ugm-3,76,R,ugm-3,212,R,ugm-3
16-01-2004,08:00,83,R,ugm-3,71,R,ugm-3,197,R,ugm-3
16-01-2004,09:00,48,R,ugm-3,59,R,ugm-3,132,R,ugm-3
16-01-2004,10:00,23,R,ugm-3,40,R,ugm-3,74,R,ugm-3
16-01-2004,11:00,23,R,ugm-3,40,R,ugm-3,74,R,ugm-3
16-01-2004,12:00,33,R,ugm-3,46,R,ugm-3,96,R,ugm-3
16-01-2004,13:00,41,R,ugm-3,50,R,ugm-3,113,R,ugm-3
16-01-2004,14:00,48,R,ugm-3,50,R,ugm-3,122,R,ugm-3
16-01-2004,15:00,53,R,ugm-3,57,R,ugm-3,138,R,ugm-3
16-01-2004,16:00,53,R,ugm-3,57,R,ugm-3,138,R,ugm-3
16-01-2004,17:00,59,R,ugm-3,57,R,ugm-3,147,R,ugm-3
16-01-2004,18:00,35,R,ugm-3,53,R,ugm-3,107,R,ugm-3
16-01-2004,19:00,15,R,ugm-3,42,R,ugm-3,65,R,ugm-3
16-01-2004,20:00,6,R,ugm-3,29,R,ugm-3,38,R,ugm-3
16-01-2004,21:00,5,R,ugm-3,29,R,ugm-3,36,R,ugm-3
16-01-2004,22:00,5,R,ugm-3,29,R,ugm-3,36,R,ugm-3
16-01-2004,23:00,4,R,ugm-3,31,R,ugm-3,36,R,ugm-3
16-01-2004,24:00,4,R,ugm-3,31,R,ugm-3,36,R,ugm-3
17-01-2004,01:00,3,R,ugm-3,23,R,ugm-3,27,R,ugm-3
17-01-2004,02:00,1,R,ugm-3,13,R,ugm-3,15,R,ugm-3
17-01-2004,03:00,1,R,ugm-3,13,R,ugm-3,15,R,ugm-3
17-01-2004,04:00,1,R,ugm-3,11,R,ugm-3,13,R,ugm-3
17-01-2004,05:00,1,R,ugm-3,10,R,ugm-3,11,R,ugm-3
17-01-2004,06:00,3,R,ugm-3,13,R,ugm-3,17,R,ugm-3
17-01-2004,07:00,3,R,ugm-3,17,R,ugm-3,21,R,ugm-3
17-01-2004,08:00,5,R,ugm-3,29,R,ugm-3,36,R,ugm-3
17-01-2004,09:00,10,R,ugm-3,25,R,ugm-3,40,R,ugm-3
17-01-2004,10:00,6,R,ugm-3,32,R,ugm-3,42,R,ugm-3
17-01-2004,11:00,8,R,ugm-3,23,R,ugm-3,34,R,ugm-3
17-01-2004,12:00,4,R,ugm-3,15,R,ugm-3,21,R,ugm-3
17-01-2004,13:00,4,R,ugm-3,11,R,ugm-3,17,R,ugm-3
17-01-2004,14:00,3,R,ugm-3,10,R,ugm-3,13,R,ugm-3
17-01-2004,15:00,3,R,ugm-3,10,R,ugm-3,13,R,ugm-3
17-01-2004,16:00,3,R,ugm-3,10,R,ugm-3,13,R,ugm-3
17-01-2004,17:00,3,R,ugm-3,11,R,ugm-3,15,R,ugm-3
17-01-2004,18:00,1,R,ugm-3,13,R,ugm-3,15,R,ugm-3
17-01-2004,19:00,1,R,ugm-3,11,R,ugm-3,13,R,ugm-3
17-01-2004,20:00,14,R,ugm-3,42,R,ugm-3,63,R,ugm-3
17-01-2004,21:00,4,R,ugm-3,48,R,ugm-3,53,R,ugm-3
17-01-2004,22:00,3,R,ugm-3,34,R,ugm-3,38,R,ugm-3
17-01-2004,23:00,1,R,ugm-3,23,R,ugm-3,25,R,ugm-3
17-01-2004,24:00,1,R,ugm-3,17,R,ugm-3,19,R,ugm-3
18-01-2004,01:00,1,R,ugm-3,11,R,ugm-3,13,R,ugm-3
18-01-2004,02:00,3,R,ugm-3,17,R,ugm-3,21,R,ugm-3
18-01-2004,03:00,4,R,ugm-3,21,R,ugm-3,27,R,ugm-3
18-01-2004,04:00,1,R,ugm-3,11,R,ugm-3,13,R,ugm-3
18-01-2004,05:00,1,R,ugm-3,10,R,ugm-3,11,R,ugm-3
18-01-2004,06:00,1,R,ugm-3,17,R,ugm-3,19,R,ugm-3
18-01-2004,07:00,3,R,ugm-3,25,R,ugm-3,29,R,ugm-3
18-01-2004,08:00,3,R,ugm-3,29,R,ugm-3,32,R,ugm-3
18-01-2004,09:00,8,R,ugm-3,40,R,ugm-3,52,R,ugm-3
18-01-2004,10:00,6,R,ugm-3,34,R,ugm-3,44,R,ugm-3
18-01-2004,11:00,6,R,ugm-3,27,R,ugm-3,36,R,ugm-3
18-01-2004,12:00,9,R,ugm-3,27,R,ugm-3,40,R,ugm-3
18-01-2004,13:00,4,R,ugm-3,23,R,ugm-3,29,R,ugm-3
18-01-2004,14:00,4,R,ugm-3,23,R,ugm-3,29,R,ugm-3
18-01-2004,15:00,4,R,ugm-3,21,R,ugm-3,27,R,ugm-3
18-01-2004,16:00,3,R,ugm-3,23,R,ugm-3,27,R,ugm-3
18-01-2004,17:00,3,R,ugm-3,25,R,ugm-3,29,R,ugm-3
18-01-2004,18:00,3,R,ugm-3,27,R,ugm-3,31,R,ugm-3
18-01-2004,19:00,3,R,ugm-3,21,R,ugm-3,25,R,ugm-3
18-01-2004,20:00,3,R,ugm-3,17,R,ugm-3,21,R,ugm-3
18-01-2004,21:00,3,R,ugm-3,11,R,ugm-3,15,R,ugm-3
18-01-2004,22:00,1,R,ugm-3,13,R,ugm-3,15,R,ugm-3
18-01-2004,23:00,1,R,ugm-3,13,R,ugm-3,15,R,ugm-3
18-01-2004,24:00,1,R,ugm-3,11,R,ugm-3,13,R,ugm-3
19-01-2004,01:00,1,R,ugm-3,4,R,ugm-3,6,R,ugm-3
19-01-2004,02:00,1,R,ugm-3,4,R,ugm-3,6,R,ugm-3
19-01-2004,03:00,1,R,ugm-3,4,R,ugm-3,6,R,ugm-3
19-01-2004,04:00,1,R,ugm-3,4,R,ugm-3,6,R,ugm-3
19-01-2004,05:00,1,R,ugm-3,4,R,ugm-3,6,R,ugm-3
19-01-2004,06:00,1,R,ugm-3,6,R,ugm-3,8,R,ugm-3
19-01-2004,07:00,5,R,ugm-3,17,R,ugm-3,25,R,ugm-3
19-01-2004,08:00,106,R,ugm-3,97,R,ugm-3,260,R,ugm-3
19-01-2004,09:00,74,R,ugm-3,80,R,ugm-3,193,R,ugm-3
19-01-2004,10:00,43,R,ugm-3,52,R,ugm-3,117,R,ugm-3
19-01-2004,11:00,63,R,ugm-3,59,R,ugm-3,155,R,ugm-3
19-01-2004,12:00,56,R,ugm-3,61,R,ugm-3,147,R,ugm-3
19-01-2004,13:00,34,R,ugm-3,46,R,ugm-3,97,R,ugm-3
19-01-2004,14:00,46,R,ugm-3,59,R,ugm-3,130,R,ugm-3
19-01-2004,15:00,26,R,ugm-3,38,R,ugm-3,78,R,ugm-3
19-01-2004,16:00,35,R,ugm-3,44,R,ugm-3,97,R,ugm-3
19-01-2004,17:00,21,R,ugm-3,36,R,ugm-3,69,R,ugm-3
19-01-2004,18:00,36,R,ugm-3,44,R,ugm-3,99,R,ugm-3
19-01-2004,19:00,4,R,ugm-3,17,R,ugm-3,23,R,ugm-3
19-01-2004,20:00,3,R,ugm-3,15,R,ugm-3,19,R,ugm-3
19-01-2004,21:00,6,R,ugm-3,19,R,ugm-3,29,R,ugm-3
19-01-2004,22:00,9,R,ugm-3,23,R,ugm-3,36,R,ugm-3
19-01-2004,23:00,5,R,ugm-3,17,R,ugm-3,25,R,ugm-3
19-01-2004,24:00,3,R,ugm-3,10,R,ugm-3,13,R,ugm-3
20-01-2004,01:00,1,R,ugm-3,4,R,ugm-3,6,R,ugm-3
20-01-2004,02:00,1,R,ugm-3,8,R,ugm-3,10,R,ugm-3
20-01-2004,03:00,1,R,ugm-3,6,R,ugm-3,8,R,ugm-3
20-01-2004,04:00,1,R,ugm-3,4,R,ugm-3,6,R,ugm-3
20-01-2004,05:00,1,R,ugm-3,6,R,ugm-3,8,R,ugm-3
20-01-2004,06:00,44,R,ugm-3,57,R,ugm-3,124,R,ugm-3
20-01-2004,07:00,145,R,ugm-3,103,R,ugm-3,325,R,ugm-3
20-01-2004,08:00,99,R,ugm-3,96,R,ugm-3,246,R,ugm-3
20-01-2004,09:00,29,R,ugm-3,63,R,ugm-3,107,R,ugm-3
20-01-2004,10:00,13,R,ugm-3,50,R,ugm-3,69,R,ugm-3
20-01-2004,11:00,51,R,ugm-3,122,R,ugm-3,201,R,ugm-3
20-01-2004,12:00,25,R,ugm-3,50,R,ugm-3,88,R,ugm-3
20-01-2004,13:00,55,R,ugm-3,76,R,ugm-3,160,R,ugm-3
20-01-2004,14:00,58,R,ugm-3,80,R,ugm-3,168,R,ugm-3
20-01-2004,15:00,31,R,ugm-3,74,R,ugm-3,122,R,ugm-3
20-01-2004,16:00,68,R,ugm-3,103,R,ugm-3,206,R,ugm-3
20-01-2004,17:00,39,R,ugm-3,82,R,ugm-3,141,R,ugm-3
20-01-2004,18:00,43,R,ugm-3,65,R,ugm-3,130,R,ugm-3
20-01-2004,19:00,45,R,ugm-3,69,R,ugm-3,138,R,ugm-3
20-01-2004,20:00,68,R,ugm-3,71,R,ugm-3,174,R,ugm-3
20-01-2004,21:00,21,R,ugm-3,50,R,ugm-3,82,R,ugm-3
20-01-2004,22:00,5,R,ugm-3,36,R,ugm-3,44,R,ugm-3
20-01-2004,23:00,4,R,ugm-3,34,R,ugm-3,40,R,ugm-3
20-01-2004,24:00,3,R,ugm-3,27,R,ugm-3,31,R,ugm-3
21-01-2004,01:00,1,R,ugm-3,13,R,ugm-3,15,R,ugm-3